Voltar ao catálogo

COSMOS 1285 DEB

LostHEO
NORAD 28561·DEBRIS·🇷🇺 Russia

Lançado Aug 4, 1981 de Plesetsk Cosmodrome

Loading…

Próximas Passagens (próximas 24 horas)

TLE

ObsoletoSource: Space-Track

Época: Apr 11, 2011, 20:56 UTC

1 28561U 81071V   11101.87240564  .00000669  00000-0  10000-3 0  9994
2 28561  68.1054  56.8763 6143652 144.1951 279.4093  1.97830214 57130

Acompanhe COSMOS 1285 DEB em tempo real com AllMySat

Download on the App Store